AO-07 1 07530U 74089B 19248.48133615 -.00000030 00000-0 95714-4 0 9992 2 07530 101.7520 215.3578 0011916 193.5580 279.1182 12.53639584 50396 UO-11 1 14781U 84021B 19248.50277731 .00000061 00000-0 13553-4 0 9990 2 14781 97.6079 269.4787 0009884 65.6054 294.6191 14.83103963910447 LO-19 1 20442U 90005G 19248.43395961 .00000004 00000-0 17672-4 0 9991 2 20442 98.6526 190.3194 0010625 278.8736 81.1245 14.32931748547652 HUBBLE 1 20580U 90037B 19248.77614156 .00000420 00000-0 14595-4 0 9999 2 20580 28.4702 48.9812 0002522 256.4008 210.0655 15.09261639412848 MET-2/21 1 22782U 93055A 19248.13705712 .00000005 00000-0 -82909-5 0 9992 2 22782 82.5461 100.8243 0021574 320.9173 156.8100 13.83820046313712 AO-27 1 22825U 93061C 19248.84200665 -.00000011 00000-0 13874-4 0 9993 2 22825 98.9091 239.3059 0009305 124.3113 235.8950 14.30065568353269 IO-26 1 22826U 93061D 19247.91588275 -.00000019 00000-0 10622-4 0 9993 2 22826 098.9031 238.3397 0009895 116.6461 243.5735 14.30399351353089 FO-29 1 24278U 96046B 19247.93148224 -.00000038 00000-0 -34378-5 0 9997 2 24278 098.5490 030.7600 0350959 037.3078 325.1890 13.53093097138139 NOAA-15 1 25338U 98030A 19248.63801593 .00000013 00000-0 24360-4 0 9993 2 25338 98.7441 269.7505 0010713 19.8792 340.2803 14.25929417108506 GO-32 1 25397U 98043D 19247.84208972 -.00000006 00000-0 16533-4 0 9992 2 25397 98.6920 187.0536 0001796 131.6759 228.4573 14.23669835 98990 ISS 1 25544U 98067A 19248.74104551 .00001914 00000-0 40959-4 0 9997 2 25544 51.6464 321.7009 0007980 9.7566 136.4246 15.50436092187756 NO-44 1 26931U 01043C 19248.85321486 -.00000043 00000-0 15414-4 0 9997 2 26931 67.0516 159.4053 0007476 272.5306 87.4939 14.30551162936291 SO-50 1 27607U 02058C 19247.89393640 -.00000033 00000-0 16307-4 0 9990 2 27607 64.5552 170.5018 0077817 241.4425 117.8830 14.75568658898575 CO-55 1 27844U 03031E 19247.88662564 .00000032 00000-0 34103-4 0 9990 2 27844 98.6850 254.9329 0010204 158.5142 201.6466 14.22192493839406 CO-57 1 27848U 03031J 19247.83067595 .00000015 00000-0 26481-4 0 9993 2 27848 98.6926 255.3943 0009873 169.9429 190.1948 14.21785893839245 RS-22 1 27939U 03042A 19248.70211364 .00000073 00000-0 21722-4 0 9995 2 27939 98.0524 23.0266 0013275 172.3927 187.7483 14.66799925852122 NOAA-18 1 28654U 05018A 19248.62118946 .00000055 00000-0 54572-4 0 9997 2 28654 99.0889 296.7460 0013486 318.6901 41.3249 14.12449372736651 CO-58 1 28895U 05043F 19247.85128224 .00000121 00000-0 32038-4 0 9993 2 28895 97.9702 27.9512 0018174 104.2877 256.0346 14.63687071738922 Falconsat-3 1 30776U 07006E 19247.60496484 .00002149 00000-0 60496-4 0 9995 2 30776 35.4354 313.3402 0001783 98.9907 261.1021 15.36432091692673 CO-65 1 32785U 08021C 19248.48056388 .00000185 00000-0 25601-4 0 9994 2 32785 97.5532 244.4922 0013271 8.7841 351.3606 14.88338702615401 AAUSAT2 1 32788U 08021F 19248.03908579 .00000556 00000-0 56106-4 0 9992 2 32788 97.4963 260.3022 0010312 301.3394 58.6817 14.94782645616629 DO-64 1 32789U 08021G 19248.69819870 .00001042 00000-0 73410-4 0 9998 2 32789 97.4579 295.9565 0011448 208.2607 151.8001 15.07084238618869 CO-66 1 32791U 08021J 19248.50042467 .00000323 00000-0 38154-4 0 9998 2 32791 97.5301 250.5603 0012826 342.2513 17.8256 14.90861105615858 RS-30 1 32953U 08025A 19248.67971457 .00000020 00000-0 75656-4 0 9992 2 32953 82.4998 95.6462 0019204 319.6621 40.3028 12.43091161512126 PRISM 1 33493U 09002B 19248.35117690 .00000791 00000-0 74727-4 0 9997 2 33493 98.1205 172.2875 0013489 285.6849 74.2883 14.96721549576916 NOAA-19 1 33591U 09005A 19248.60735342 .00000031 00000-0 42217-4 0 9993 2 33591 99.1850 241.6584 0014385 153.4702 206.7208 14.12374593545040 TISAT-1 1 36799U 10035E 19248.12744454 .00000354 00000-0 41789-4 0 9993 2 36799 98.1658 42.9279 0012226 182.6739 177.4414 14.91145977496459 JUGNU 1 37839U 11058B 19248.22209699 .00000324 00000-0 30726-4 0 9999 2 37839 19.9600 218.5583 0019143 112.7451 4.1272 14.12657523408372 SRMSAT 1 37841U 11058D 19248.23293796 .00000316 00000-0 28804-4 0 9999 2 37841 19.9715 276.8961 0011856 340.6779 87.5098 14.10637909407797 AO-71 1 37854U 11061E 19248.79494154 .00000752 00000-0 46276-4 0 9996 2 37854 101.6980 187.6895 0160298 190.7899 168.9861 15.06549369428907 HRBE 1 37855U 11061F 19247.75609500 .00000732 00000-0 44604-4 0 9996 2 37855 101.7105 183.4225 0173054 205.3234 153.9421 15.05559660428527 ALMASAT-1 1 38078U 12006B 19248.84978831 .00066696 52630-5 33878-3 0 9993 2 38078 69.4275 39.2643 0145145 139.8089 337.3869 15.67672523409877 HORYU-2 1 38340U 12025D 19247.88874614 .00000114 00000-0 24633-4 0 9995 2 38340 098.3232 288.8011 0010507 230.6291 129.3988 14.75743684382283 RS-40 1 38735U 12041C 19248.13194736 -.00000007 00000-0 -12101-3 0 9999 2 38735 82.4776 179.1874 0018182 64.8935 295.4037 12.42578349322297 BEESAT-3 1 39135U 13015F 19247.90222047 .00000806 00000-0 49452-4 0 9992 2 39135 064.8692 146.4335 0031733 302.8632 056.9441 15.17576273351726 BEESAT-2 1 39136U 13015G 19248.23266679 .00000980 00000-0 59095-4 0 9996 2 39136 64.8688 149.4139 0023636 304.8302 55.0600 15.16993910352083 ZACUBE-1 1 39417U 13066B 19248.81507383 .00000168 00000-0 27316-4 0 9997 2 39417 97.5627 257.8708 0060094 133.5573 227.0653 14.81142423312758 TRITON-1 1 39427U 13066M 19248.87072341 .00000172 00000-0 35712-4 0 9999 2 39427 97.6844 221.3893 0112278 272.0798 86.7554 14.67873333309955 GOMX-1 1 39430U 13066Q 19248.81978249 .00000204 00000-0 45847-4 0 9995 2 39430 97.7524 200.1871 0151788 5.2442 355.0312 14.59278561308144 LO-74 1 39440U 13066AA 19247.99020875 .00000144 00000-0 27066-4 0 9993 2 39440 97.6063 241.8207 0079901 189.5340 170.4359 14.75879896311528 AO-73 1 39444U 13066AE 19247.82656973 .00000221 00000-0 33341-4 0 9992 2 39444 97.5603 258.9584 0059275 130.3682 230.2729 14.81966336311500 SPROUT 1 39770U 14029E 19248.81298130 .00000799 00000-0 94453-4 0 9992 2 39770 97.8880 351.6088 0008806 177.8168 182.3115 14.87408638286599 DUCHIFAT-1 1 40021U 14033M 19248.21591311 .00000431 00000-0 49786-4 0 9991 2 40021 97.9226 173.0686 0013510 145.5422 214.6674 14.90671347283249 NANOSATCBR1 1 40024U 14033Q 19248.21705365 .00000287 00000-0 35744-4 0 9998 2 40024 97.9113 170.2902 0012757 148.8430 211.3546 14.89879856283137 EO-79 1 40025U 14033R 19248.46135148 .00000269 00000-0 34534-4 0 9998 2 40025 97.9030 168.0119 0012895 154.2375 205.9487 14.88974725283046 DTUSAT-2 1 40030U 14033W 19248.74789981 .00000178 00000-0 25148-4 0 9995 2 40030 97.8942 166.3241 0012475 148.8147 211.3812 14.88564204283017 EO-80 1 40032U 14033Y 19248.48759505 .00000192 00000-0 26629-4 0 9998 2 40032 97.8949 166.0657 0012417 150.3105 209.8819 14.88507880282961 ANTELSAT 1 40034U 14033AA 19248.51248022 .00000152 00000-0 29988-4 0 9998 2 40034 97.7502 112.3008 0058025 200.9047 158.9789 14.74128420280280 VELOX-1 1 40057U 14034E 19248.83486278 .00000220 00000-0 38337-4 0 9990 2 40057 98.2449 13.6704 0010508 346.9519 13.1420 14.77699413279455 DAURIA DX 1 1 40071U 14037C 19248.85824757 .00000065 00000-0 15864-4 0 9996 2 40071 98.4367 46.8268 0008067 340.5058 19.5848 14.81286952278975 UKUBE-1 1 40074U 14037F 19248.71717009 .00000240 00000-0 36005-4 0 9990 2 40074 98.4449 55.1981 0004165 342.7462 17.3620 14.84088472279371 HODOYOSHI-1 1 40299U 14070B 19248.80681485 .00000799 00000-0 36416-4 0 9999 2 40299 97.3454 326.9081 0014228 119.6402 23.1387 15.23430719268316 CHUBUSAT-1 1 40300U 14070C 19248.82043663 .00000836 00000-0 39245-4 0 9999 2 40300 97.3210 320.9838 0020565 134.7015 3.8417 15.22154960268052 QSAT-EOS 1 40301U 14070D 19248.79195074 .00002302 00000-0 91187-4 0 9993 2 40301 97.3232 324.4168 0027225 117.3897 3.9702 15.26090690268351 FIREBIRD FU3 1 40377U 15003B 19248.47545629 .00001269 00000-0 53699-4 0 9990 2 40377 99.1186 244.8774 0126403 187.5155 172.4183 15.18985669253881 FIREBIRD FU4 1 40378U 15003C 19248.59398187 .00001332 00000-0 56095-4 0 9993 2 40378 99.1189 245.1012 0126612 187.0030 172.9436 15.18994881253908 GRIFEX 1 40379U 15003D 19248.75831832 .00000892 00000-0 42246-4 0 9994 2 40379 99.1190 238.8768 0134364 206.2921 153.1445 15.15630806253568 NO-84 1 40654U 15025D 19247.41413761 .00011476 00000 0 15592-3 0 7128 2 40654 54.9885 177.9582 0135494 164.5188 196.0054 15.48103354124486 NO-83 1 40655U 15025E 19247.47102408 .00102396 14514-4 35731-3 0 8814 2 40655 54.9641 43.0918 0039374 246.3299 113.3323 15.87990279126043 DEORBITSAIL 1 40719U 15032E 19248.18660091 .00000322 00000-0 53116-4 0 9994 2 40719 97.8983 138.3800 0017785 54.7917 305.4956 14.76782621223846 NUDT-PHONESAT 1 40900U 15049B 19248.82650524 .00002499 00000-0 10920-3 0 9997 2 40900 97.4379 257.3933 0011036 268.4930 216.0662 15.22997604219706 XW-2A 1 40903U 15049E 19248.76480902 .00002355 00000-0 57075-4 0 9998 2 40903 97.3309 291.9542 0012303 214.3429 281.5853 15.42051248222432 XW-2C 1 40906U 15049H 19248.76240804 .00000584 00000-0 34098-4 0 9998 2 40906 97.4692 249.5391 0013354 288.7746 188.3783 15.15736682218978 XW-2D 1 40907U 15049J 19248.91914596 .00000910 00000-0 50895-4 0 9998 2 40907 97.4673 249.3744 0012676 284.8725 143.1517 15.15932031219014 LILACSAT-2 1 40908U 15049K 19248.78776825 .00000290 00000-0 19650-4 0 9990 2 40908 97.4809 247.9938 0014432 292.1317 192.1816 15.13839326218775 XW-2E 1 40909U 15049L 19248.82525641 .00001189 00000-0 61949-4 0 9990 2 40909 97.4612 252.2340 0011990 279.1973 203.8590 15.17883074219192 XW-2F 1 40910U 15049M 19248.74926041 .00001266 00000-0 66624-4 0 9993 2 40910 97.4638 251.3191 0013167 277.5380 202.3569 15.17396709219002 XW-2B 1 40911U 15049N 19248.76666845 .00000584 00000-0 33995-4 0 9996 2 40911 97.4697 249.8876 0012619 286.6063 191.7285 15.15858092218887 DCBB 1 40912U 15049P 19248.85770926 .00001237 00000-0 61032-4 0 9992 2 40912 97.4511 255.1907 0013277 255.9731 225.6403 15.19719953219336 TW-1C 1 40926U 15051B 19248.74413168 .00015286 00000-0 21231-3 0 9995 2 40926 97.1298 294.8535 0009355 76.9743 61.8388 15.57050940222458 TW-1A 1 40928U 15051D 19248.78272892 .00004139 00000-0 10173-3 0 9996 2 40928 97.1402 278.3301 0011910 138.7805 310.0943 15.41125082221358 IO-86 1 40931U 15052B 19247.63149343 .00000508 00000-0 -18355-4 0 9996 2 40931 5.9930 220.7492 0013038 180.1577 179.9020 14.76611073212802 LQSat 1 40958U 15057A 19248.83333304 .00000004 00000-0 82822-5 0 9996 2 40958 97.8926 315.8675 0017852 351.9721 8.1199 14.73087651210457 AO-85 1 40967U 15058D 19248.39227010 .00000069 00000 0 26307-4 0 8000 2 40967 64.7754 279.3914 0191100 177.3906 182.8192 14.75986232119358 ATHENOXAT-1 1 41168U 15077C 19248.71621370 .00001809 00000-0 60284-4 0 9993 2 41168 14.9889 356.8953 0011470 112.1843 247.9696 15.13738264205979 ChubuSat-2 1 41338U 16012B 19248.53853060 .00000323 00000-0 18368-4 0 9991 2 41338 31.0042 3.6815 0013657 164.6753 195.4298 15.00173719194767 ChubuSat-3 1 41339U 16012C 19248.76494437 .00000370 00000-0 21986-4 0 9998 2 41339 31.0116 0.2325 0013330 174.1986 185.8805 15.00348076194791 Horyu-4 1 41340U 16012D 19247.69479348 .00000483 00000-0 29953-4 0 9992 2 41340 31.0060 357.6938 0013850 183.4793 176.5748 15.01300395194747 OUFTI-1 1 41458U 16025C 19247.79822164 .00002049 00000-0 10658-3 0 9996 2 41458 98.1010 338.6145 0167450 94.4991 267.5384 15.05983771184321 e-st@r-II 1 41459U 16025D 19248.69739848 .00002021 00000-0 10568-3 0 9993 2 41459 98.1024 339.1796 0169133 92.9321 269.1264 15.05617468184439 AAUSAT4 1 41460U 16025E 19248.83888941 .00003188 00000-0 16081-3 0 9991 2 41460 98.0966 340.7677 0158689 84.4165 277.5135 15.07569472184597 LO-87 1 41557U 16033B 19248.79729112 .00001188 00000-0 47039-4 0 9992 2 41557 97.4165 335.8378 0014368 25.1510 335.0426 15.27345877182169 NuSat2 1 41558U 16033C 19248.79859691 .00001199 00000-0 44844-4 0 9992 2 41558 97.4194 337.1430 0013429 25.7270 334.4635 15.29255624182226 Lapan A3 1 41603U 16040E 19248.73398174 .00000143 00000-0 97934-5 0 9996 2 41603 97.3531 305.4667 0014840 119.3000 28.9910 15.19737730177744 Swayam 1 41607U 16040J 19247.83260815 .00001399 00000-0 61496-4 0 9997 2 41607 97.3589 308.4021 0015006 114.0551 246.2258 15.23443141177774 Pratham 1 41783U 16059A 19248.38874753 .00000027 00000-0 14337-4 0 9994 2 41783 98.0605 306.2046 0034594 135.1116 225.2894 14.63006946157056 AlSat 1N 1 41789U 16059G 19248.85692970 .00000088 00000-0 25585-4 0 9995 2 41789 98.0641 308.8300 0029490 122.8746 237.5278 14.64259273157230 ScatSat 1 41790U 16059H 19248.82115984 .00000017 00000-0 15128-4 0 9993 2 41790 98.2029 291.9697 0006700 79.6689 280.5240 14.50913181155807 TY-1 1 41844U 16066D 19248.86638024 .00001038 00000-0 45244-4 0 9996 2 41844 97.4051 255.3065 0013447 271.4407 173.0295 15.24372909156752 Pegasus-1 1 41846U 16066F 19247.69320142 .00000191 00000-0 39558-4 0 9997 2 41846 98.7052 289.1055 0367500 6.7099 353.8817 14.37608228147769 CAS-2T 1 41847U 16066G 19247.74915092 .00000037 00000-0 16181-4 0 9994 2 41847 98.6993 289.6905 0365926 2.8915 357.4271 14.38002567148216 EO-88 1 42017U 17008BX 19248.14349169 .00001320 00000-0 54667-4 0 9999 2 42017 97.3971 314.4106 0004643 246.2610 113.8142 15.25678123141881 nSIGHT1 1 42726U 98067MF 19248.50786032 .00028863 00000-0 20116-3 0 9996 2 42726 51.6347 264.8024 0004951 99.0656 261.0903 15.74086244130229 CAS-4B 1 42759U 17034B 19248.74028285 .00000433 00000-0 39948-4 0 9999 2 42759 43.0182 156.6153 0011183 22.4198 76.7840 15.09625413122782 CAS-4A 1 42761U 17034D 19248.76469160 .00000320 00000-0 33021-4 0 9996 2 42761 43.0179 155.9658 0011672 24.2775 70.3666 15.09702041122786 UCLSat 1 42765U 17036A 19248.65299308 .00001079 00000-0 49002-4 0 9993 2 42765 97.3442 304.9499 0010219 318.8921 41.1545 15.22861878122483 NIUSat 1 42766U 17036B 19247.71904085 .00000844 00000-0 40820-4 0 9993 2 42766 97.3438 302.2651 0014285 311.0464 48.9537 15.21203194122097 LituanicaSAT 2 1 42768U 17036D 19248.16734097 .00001568 00000-0 69532-4 0 9994 2 42768 97.3476 304.1243 0013520 308.1163 51.8854 15.22995820122251 Aalto 1 1 42775U 17036L 19248.39185299 .00000709 00000-0 34587-4 0 9999 2 42775 97.3424 303.2591 0012570 308.7601 51.2511 15.21418082122179 URSA MAIOR 1 42776U 17036M 19247.75373872 .00000740 00000-0 35828-4 0 9999 2 42776 97.3435 302.8101 0012433 311.1761 48.8402 15.21556498122082 Max Valier Sat 1 42778U 17036P 19247.76237976 .00000835 00000-0 39415-4 0 9997 2 42778 97.3476 303.6836 0011016 316.0090 44.0269 15.22111417122110 Pegasus 1 42784U 17036V 19247.90183171 .00000974 00000-0 44860-4 0 9991 2 42784 097.3446 304.0106 0010850 322.0830 037.9642 15.22604085122162 NUDATSat 1 42787U 17036Y 19247.91490986 .00000931 00000-0 41748-4 0 9995 2 42787 097.3487 304.8346 0011491 322.6900 037.3532 15.23610115122052 SUCHAI 1 1 42788U 17036Z 19248.21571493 .00001276 00000-0 57109-4 0 9994 2 42788 97.3451 304.6704 0010352 320.0401 40.0073 15.23040815122306 SKCUBE 1 42789U 17036AA 19247.71117387 .00001118 00000-0 50551-4 0 9996 2 42789 097.3447 304.1041 0010264 322.1970 037.8545 15.22930324122149 VZLUSAT 1 1 42790U 17036AB 19247.90189722 .00001360 00000-0 59662-4 0 9992 2 42790 097.3459 304.8220 0009733 320.5548 039.4980 15.23615541122202 VENTA 1 1 42791U 17036AC 19247.75037628 .00001115 00000-0 50410-4 0 9993 2 42791 097.3446 304.1935 0009949 322.9543 037.1006 15.22939994122142 Robusta 1B 1 42792U 17036AD 19248.75026449 .00001175 00000-0 52726-4 0 9992 2 42792 97.3447 305.2882 0009786 319.1941 40.8562 15.23106574122325 D-SAT 1 42794U 17036AF 19248.11983815 .00000227 00000-0 25376-4 0 9991 2 42794 97.5330 289.3449 0125152 239.8672 119.0097 14.91127016120021 TechnoSat 1 42829U 17042E 19248.80334510 .00000028 00000-0 81709-5 0 9997 2 42829 97.5531 138.3533 0014857 151.1124 209.0921 14.90994274116722 TOMSK-TPU 120 1 42910U 98067MZ 19248.86293234 .00127995 17493-4 34453-3 0 9990 2 42910 51.6306 234.0946 0005372 79.8296 354.0184 15.94126149117618 TANYUSHA 2 1 42912U 98067NB 19248.70315972 .02500102 12117-4 52303-3 0 9998 2 42912 51.6267 222.5515 0001059 185.4160 169.3834 16.30208236117744 TNS 0-2 1 42914U 98067ND 19248.46152796 .00155248 20650-4 38272-3 0 9991 2 42914 51.6293 236.1814 0004948 81.7018 278.4551 15.95677009117542 QIKCOM-1 1 42983U 98067NF 19248.67431923 .00002927 00000-0 42920-4 0 9996 2 42983 51.6394 303.5944 0004619 64.0339 296.1129 15.59255988105664 AO-91 1 43017U 17073E 19248.77598123 .00000356 00000-0 33928-4 0 9992 2 43017 97.7203 167.0406 0256508 260.8786 96.3326 14.78619607 96948 EcAMSat 1 43019U 98067NG 19248.57937057 .00005678 00000-0 69842-4 0 9993 2 43019 51.6404 297.7601 0005112 46.0997 314.0418 15.61944790188054 PICSAT 1 43132U 18004X 19248.18487283 .00001130 00000-0 50034-4 0 9992 2 43132 97.4825 315.8306 0009212 349.2116 10.8922 15.23702316 91457 AO-92 1 43137U 18004AC 19248.18269213 .00000867 00000-0 39249-4 0 9999 2 43137 97.4815 315.7889 0008865 351.6879 8.4209 15.23564831 91440 TianYi 2 1 43155U 18008A 19248.87874167 .00001385 00000-0 85902-4 0 9992 2 43155 97.4818 319.7386 0018942 55.1732 71.6742 15.11223738 89783 Zhou Enlai 1 43156U 18008B 19248.81340022 .00001395 00000-0 87775-4 0 9996 2 43156 97.4867 319.5578 0016172 53.4941 41.5535 15.10731737 89749 TianYi 6 1 43158U 18008D 19248.82162649 .00001224 00000-0 78390-4 0 9990 2 43158 97.4823 318.9647 0015013 50.2988 87.3994 15.10314558 89703 S-Net G 1 43186U 18014G 19248.31628953 -.00000187 00000-0 -11270-4 0 9990 2 43186 97.7032 155.6055 0012567 100.0990 260.1650 14.96673646 86892 S-Net H 1 43187U 18014H 19247.78125974 -.00000111 00000-0 -46640-5 0 9993 2 43187 97.7032 155.0648 0012595 101.6040 258.6596 14.96673756 86814 S-Net J 1 43188U 18014J 19248.18221120 -.00000147 00000-0 -78093-5 0 9995 2 43188 97.7033 155.4791 0012574 100.5526 259.7112 14.96673548 86874 S-Net K 1 43189U 18014K 19248.71740259 -.00000248 00000-0 -16683-4 0 9992 2 43189 97.7028 155.9837 0012533 98.8210 261.4431 14.96673080 85503 FMN 1 1 43192U 18015A 19248.84940456 .00002598 00000-0 10835-3 0 9992 2 43192 97.4094 15.6457 0016722 20.7579 98.8852 15.24473540 88371 Shaonian Xing 1 43199U 18015H 19248.83560000 .00001942 00000-0 80553-4 0 9998 2 43199 97.3878 14.5898 0017876 31.0128 92.2110 15.24935295 88421 1KUNS-PF 1 43466U 98067NP 19248.59493251 .00024229 00000-0 21288-3 0 9998 2 43466 51.6359 293.2493 0001968 42.5795 317.5354 15.68663622 75298 UBAKUSAT 1 43467U 98067NQ 19248.60655921 .00013145 00000-0 14060-3 0 9990 2 43467 51.6365 299.3394 0002946 20.8114 339.3000 15.64242447 75221 Irazu 1 43468U 98067NR 19248.54414549 .00036908 00000-0 27216-3 0 9992 2 43468 51.6350 288.3604 0002367 43.8451 316.2734 15.72640875175342 EnduroSat One 1 43551U 98067NZ 19248.61387730 .00016871 00000-0 17545-3 0 9995 2 43551 51.6367 301.6388 0006030 76.7133 283.4535 15.64709923 65426 EQUISat 1 43552U 98067PA 19247.64064244 .00011932 00000-0 13386-3 0 9992 2 43552 51.6382 308.6718 0006390 73.8184 286.3514 15.63111444 65200 UiTMSat 1 1 43589U 98067PD 19248.40172680 .00014188 00000-0 15616-3 0 9995 2 43589 51.6356 305.4322 0005648 82.4352 277.7284 15.63421844 61050 Maya 1 1 43590U 98067PE 19247.43711058 .00012476 00000-0 13811-3 0 9990 2 43590 51.6360 310.2457 0005700 81.6227 278.5414 15.63409708 60835 Bhutan 1 1 43591U 98067PF 19248.19190567 .00011590 00000-0 12832-3 0 9999 2 43591 51.6370 306.3151 0005857 83.0354 277.1306 15.63489025 60952 SiriusSat 1 1 43595U 98067PG 19248.79652225 .00012381 00000-0 14155-3 0 9992 2 43595 51.6359 305.0748 0004127 46.7313 313.4025 15.62588669 60204 SiriusSat 2 1 43596U 98067PH 19248.38734247 .00012970 00000-0 14899-3 0 9992 2 43596 51.6370 307.6356 0004614 45.9857 314.1517 15.62411984 60137 Tanusha-3 1 43597U 98067PJ 19248.42599525 .00018110 00000-0 19025-3 0 9994 2 43597 51.6351 304.8181 0004202 55.7730 304.3662 15.64402374 60175 SurfSat 1 43614U 18070B 19248.66950828 .00002383 00000-0 64212-4 0 9997 2 43614 93.0287 36.2563 0016104 11.4045 348.7570 15.37793189 54546 CP-7 DAVE 1 43615U 18070C 19247.89870840 .00002216 00000-0 59878-4 0 9994 2 43615 093.0289 035.9371 0016425 013.5619 346.6073 15.37695634054426 ELFIN-B 1 43616U 18070D 19247.87263031 .00003121 00000-0 82254-4 0 9991 2 43616 93.0254 35.8347 0017270 16.5798 343.6017 15.38428048 54431 ELFIN-A 1 43617U 18070E 19248.38444671 .00003589 00000-0 94437-4 0 9994 2 43617 93.0307 36.3226 0016218 12.0558 348.1080 15.38488965 54512 STARS-Me Mother 1 43640U 98067PQ 19248.40005306 .00007889 00000-0 10380-3 0 9996 2 43640 51.6373 312.2122 0005829 34.8856 325.2518 15.59493444 52006 CubeBel 1 1 43666U 18083E 19248.74135814 .00001181 00000-0 61889-4 0 9999 2 43666 97.5170 272.6707 0013483 275.4902 175.5382 15.17695334 47270 Changshagaoxin 1 43669U 18083H 19248.74841875 .00000566 00000-0 32162-4 0 9991 2 43669 97.5034 271.7442 0009278 265.8779 94.1393 15.16870065 47217 Ten-Koh 1 43677U 18084G 19248.18492947 .00000143 00000-0 20612-4 0 9999 2 43677 97.8586 1.4357 0016677 28.0176 332.1936 14.90188353 46305 PO-101 1 43678U 18084H 19248.90043017 .00000436 00000-0 49167-4 0 9991 2 43678 97.8591 2.8384 0011021 47.0066 313.2060 14.91572137 46456 IRVINE 01 1 43693U 18088D 19248.53806453 .00002238 00000-0 97173-4 0 9994 2 43693 85.0326 266.0375 0015873 262.0617 97.8824 15.21612120 45354 QO-100 1 43700U 18090A 19248.78494439 .00000121 00000-0 00000 0 0 9997 2 43700 0.0111 125.8138 0001528 45.7314 121.4057 1.00272461 3081 Reaktor Hello World 1 43743U 18096AA 19248.80989618 .00001688 00000-0 66744-4 0 9992 2 43743 97.4548 318.7049 0019597 59.4897 8.8173 15.26741989 42808 MinXSS-2 1 43758U 18099A 19248.84352443 -.00000143 00000-0 -76328-5 0 9992 2 43758 97.7400 319.9423 0017010 65.8532 294.4465 14.95451768 41262 AO-95 1 43770U 18099N 19248.75992342 .00000387 00000-0 40817-4 0 9995 2 43770 97.7400 319.5989 0016126 72.6459 287.6523 14.94803849 41236 RANGE-B 1 43772U 18099Q 19248.27449404 .00000678 00000-0 67320-4 0 9991 2 43772 97.7455 319.3382 0015481 62.9721 297.3078 14.94919518 41155 RANGE-A 1 43773U 18099R 19247.88077574 .00000541 00000-0 54872-4 0 9990 2 43773 97.7348 318.5733 0014939 64.1840 296.0919 14.94828639 41097 MOVE-II 1 43780U 18099Y 19248.17572599 .00000066 00000-0 11250-4 0 9993 2 43780 97.7392 319.0855 0015026 72.7216 287.5647 14.95112726 41137 SNUSat 2 1 43782U 18099AA 19248.17120820 -.00000046 00000-0 10816-5 0 9998 2 43782 97.7396 319.1255 0014179 63.0123 297.2544 14.95084484 41140 SnugLite 1 43784U 18099AC 19248.42467751 .00000484 00000-0 49263-4 0 9997 2 43784 97.7363 319.2853 0016636 69.2752 291.0250 14.95169383 41190 ITASat 1 1 43786U 18099AE 19248.75719745 .00000463 00000-0 47284-4 0 9996 2 43786 97.7415 319.8078 0016705 67.2682 293.0302 14.95169547 41240 EAGLET 1 1 43790U 18099AJ 19248.75432953 .00000577 00000-0 57164-4 0 9998 2 43790 97.7405 319.9327 0015007 72.0765 288.2090 14.95541370 40946 ESEO 1 43792U 18099AL 19248.81936733 .00000464 00000-0 46975-4 0 9995 2 43792 97.7384 319.9352 0014812 69.1991 291.0815 14.95524466 41016 CSIM 1 43793U 18099AM 19248.19308553 .00000293 00000-0 31471-4 0 9995 2 43793 97.7349 319.2134 0014328 69.5769 290.6989 14.95749802 40893 Astrocast 0.1 1 43798U 18099AS 19248.17691012 -.00000328 00000-0 -24207-4 0 9993 2 43798 97.7393 319.4118 0013705 55.4671 304.7842 14.95752998 41150 JO-97 1 43803U 18099AX 19248.73488930 .00000406 00000-0 41968-4 0 9993 2 43803 97.7370 319.6836 0016535 68.1516 292.1461 14.95304783 41235 Suomi 100 1 43804U 18099AY 19248.26603301 .00000346 00000-0 36534-4 0 9999 2 43804 97.7370 319.2180 0016601 69.5836 290.7165 14.95302679 41178 Al Farabi 2 1 43805U 18099AZ 19248.79356665 .00000220 00000-0 25119-4 0 9994 2 43805 97.7372 319.7619 0016602 68.0312 292.2671 14.95368995 41258 PWSat 2 1 43814U 18099BJ 19248.18756461 .00016980 00000-0 13204-2 0 9995 2 43814 97.7732 321.1011 0012254 102.8567 257.5261 15.01291984 40629 CHOMPTT 1 43855U 18104G 19247.84932832 .00001433 00000-0 59859-4 0 9992 2 43855 85.0377 4.7602 0019366 34.4118 325.8378 15.22475641 39917 ISAT 1 43879U 18111D 19248.85217624 -.00000179 00000-0 -10790-4 0 9992 2 43879 97.7114 155.6922 0014473 115.8253 244.4463 14.96027755 35782 UWE-4 1 43880U 18111E 19247.80799514 .00000250 00000-0 27266-4 0 9995 2 43880 97.7119 154.7888 0013524 120.6140 239.6417 14.96264296 35637 Sparrow 1 43881U 18111F 19248.80336985 .00000097 00000-0 13699-4 0 9990 2 43881 97.7122 155.8003 0013617 116.3275 243.9347 14.96312894 35770 Lume 1 1 43908U 18111AJ 19248.17755153 .00000982 00000-0 42593-4 0 9990 2 43908 97.2824 151.2672 0023364 75.5083 284.8745 15.24438647 38405 FO-98 1 43933U 19003B 19248.78827108 .00000961 00000-0 45289-4 0 9998 2 43933 97.2746 303.7754 0018106 161.8958 264.0343 15.21711078 35083 FO-99 1 43937U 19003F 19248.90268008 .00001669 00000-0 71819-4 0 9998 2 43937 97.2702 304.3849 0025332 149.6285 313.9431 15.23701577 35141 Delphini 1 1 44030U 98067PW 19248.61014419 .00010951 00000-0 15099-3 0 9994 2 44030 51.6378 315.8740 0005020 76.2334 283.9217 15.57764714 33840 MYSat 1 1 44045U 18092F 19247.84274994 .00002829 00000-0 92515-4 0 9994 2 44045 51.6432 352.3697 0011748 11.8255 348.3001 15.35191004 31246 AstroCast 0.2 1 44083U 19018F 19248.73157190 .00000473 00000-0 24154-4 0 9999 2 44083 97.4618 308.0659 0015691 92.2545 268.0487 15.21434934 23934 AISTechSat 3 1 44103U 19018AB 19248.75629716 .00001218 00000-0 55159-4 0 9999 2 44103 97.4495 308.1166 0015116 107.6274 9.9268 15.22715783 23952 AISat 1 1 44104U 19018AC 19248.77923113 .00000974 00000-0 33945-4 0 9997 2 44104 97.5026 311.0962 0059954 145.2048 215.3136 15.30558089 24104 Raavana-1 1 44329U 98067QE 19248.51056484 .00006556 00000-0 11132-3 0 9992 2 44329 51.6412 321.9733 0007620 18.9860 341.1413 15.52785940 12509 Uguisu 1 44330U 98067QF 19247.67584653 .00006389 00000-0 10889-3 0 9996 2 44330 51.6411 326.1483 0007561 14.7685 345.3524 15.52734258 12350 NepaliSat-1 1 44331U 98067QG 19248.50875991 .00006518 00000-0 11059-3 0 9992 2 44331 51.6412 321.9618 0007641 20.2044 339.9247 15.52820436 12495 Prox-1 1 44339U 19036A 19248.86878184 .00000242 00000-0 74367-5 0 9996 2 44339 23.9994 108.3456 0010998 268.3738 91.5487 14.52655313 10552 OBJECT H 1 44346U 19036H 19247.89633579 .00016749 00000-0 26693-3 0 9999 2 44346 28.5216 95.7411 0388268 142.4651 220.3717 14.96991633 10736 OBJECT J 1 44347U 19036J 19247.90245554 .00051367 00000-0 81234-3 0 9991 2 44347 28.5275 94.8700 0377126 143.8534 218.8172 14.99670670 10745 OBJECT K 1 44348U 19036K 19247.87330418 .00015044 00000-0 23552-3 0 9993 2 44348 28.5159 95.5287 0388048 142.4871 220.3462 14.97362198 10739 Armadillo 1 44352U 19036P 19247.86045373 .00021433 00000-0 34215-3 0 9997 2 44352 28.5296 95.5078 0384123 142.4511 220.3567 14.97888955 10678 NO-104 1 44354U 19036R 19248.83784091 .00011811 00000-0 18150-3 0 9993 2 44354 28.5314 88.7881 0385451 152.9397 209.1850 14.98127712 10869 NO-103 1 44355U 19036S 19247.89255873 .00020155 00000-0 31257-3 0 9994 2 44355 028.5315 094.7661 0382089 143.2323 219.5118 14.98891633010738 Oculus-ASR 1 44356U 19036T 19248.88363373 .00057252 00000-0 82356-3 0 9994 2 44356 28.5213 87.2075 0375761 155.6423 206.2337 15.01962581 10898 CP9 1 44360U 19036X 19248.82302705 .00037345 00000-0 51671-3 0 9992 2 44360 28.5152 87.5828 0384734 155.0191 206.8968 15.00908653 10750 Move-IIb 1 44398U 19038N 19248.85626372 .00001263 00000-0 77494-4 0 9999 2 44398 97.4950 209.5879 0026704 34.3766 325.9186 15.11658903 9420 SONATE 1 44400U 19038Q 19248.85480104 .00000412 00000-0 27829-4 0 9996 2 44400 97.4951 209.5899 0026499 32.1693 328.1135 15.11660933 9428 BeeSat 9 1 44412U 19038AC 19247.85653063 .00000865 00000-0 54104-4 0 9992 2 44412 97.4959 208.6233 0024244 41.7786 318.5290 15.11806243 8965 JAISAT-1 1 44419U 19038F 19247.83638860 .00000852 00000-0 52689-4 0 9997 2 44419 97.4959 208.6508 0023085 41.9326 318.3667 15.12299872 9277 LightSail-2 1 44420U 19036AC 19247.97685219 .00006617 00000-0 15221-2 0 9996 2 44420 24.0047 113.9837 0024354 241.1683 118.6384 14.52855264 8560 /EX
